Location: Pasarilla del Rebollar
(40.6790°N, 5.0062°W)
Time: 11:16:14
(UTC+00:00)

CZ-4C R/B - Pass Details

Date: 22 April 2026
Orbit: 475 x 1502 km, 63.4° (Epoch: 15 May)

Event Time Altitude Azimuth Distance (km) Brightness Sun altitude
Exits shadow 01:22:01 24° 26° (NNE) 1,375 3.8 -35.2°
Drops below altitude 10° 01:24:14 10° 31° (NNE) 2,238 5.2 -35.0°
Sets 01:26:58 0° 34° (NNE) 3,337 6.3 -34.9°
